1998-067WX

Last updated on Thu Sep 05 2024 00:02:08 GMT+0000 (Coordinated Universal Time)

1 60957U 98067WX 24247.66684267 .00151188 00000+0 24897-2 0 9996 2 60957 51.6404 286.5066 0012900 319.6447 40.3692 15.51209936 2803
UTC large
Height (km)
Speed (km/s)
/
Latitude / Longitude
Inclination (degrees)
Orbital Period (minutes)
Azimuth
Elevation
Range (km)
Doppler Factor

Next 0 passes for location: London (51.5072 / 0.1276)

Sorry there are no passes over London.